Time,TemperatureF,DewpointF,PressureIn,WindDirection,WindDirectionDegrees,WindSpeedMPH,WindSpeedGustMPH,Humidity,HourlyPrecipIn,Conditions,Clouds,dailyrainin,SolarRadiationWatts/m^2,SoftwareType,DateUTC
2013-02-11 00:01:00,10.0,3.0,-100.00,North,359,0.0,3.0,74,0.00,,,-99.99,0.000000,,2013-02-11 05:01:00,
2013-02-11 00:22:00,10.0,3.0,-100.00,North,359,0.0,3.0,74,0.00,,,-99.99,0.000000,,2013-02-11 05:22:00,
2013-02-11 00:32:00,10.0,3.0,-100.00,North,359,0.0,3.0,74,0.00,,,-99.99,0.000000,,2013-02-11 05:32:00,
2013-02-11 00:42:00,10.0,3.0,-100.00,North,359,0.0,3.0,74,0.00,,,-99.99,0.000000,,2013-02-11 05:42:00,
2013-02-11 00:53:00,10.0,3.0,-100.00,North,359,0.0,3.0,74,0.00,,,-99.99,0.000000,,2013-02-11 05:53:00,
2013-02-11 01:01:00,11.0,4.0,-100.00,NE,43,0.0,2.0,72,0.00,,,0.15,0.000000,,2013-02-11 06:01:00,
2013-02-11 01:32:00,11.0,4.0,-100.00,NE,43,0.0,2.0,72,0.00,,,0.15,0.000000,,2013-02-11 06:32:00,
2013-02-11 01:42:00,11.0,4.0,-100.00,NE,43,0.0,2.0,72,0.00,,,0.15,0.000000,,2013-02-11 06:42:00,
2013-02-11 01:52:00,11.0,4.0,-100.00,NE,43,0.0,2.0,72,0.00,,,0.15,0.000000,,2013-02-11 06:52:00,
2013-02-11 02:01:00,13.0,3.0,-100.00,North,359,0.0,5.0,65,0.00,,,0.15,0.000000,,2013-02-11 07:01:00,
2013-02-11 02:32:00,13.0,3.0,-100.00,North,359,0.0,5.0,65,0.00,,,0.15,0.000000,,2013-02-11 07:32:00,
2013-02-11 02:42:00,13.0,3.0,-100.00,North,359,0.0,5.0,65,0.00,,,0.15,0.000000,,2013-02-11 07:42:00,
2013-02-11 02:52:00,13.0,3.0,-100.00,North,359,0.0,5.0,65,0.00,,,0.15,0.000000,,2013-02-11 07:52:00,
2013-02-11 03:01:00,13.0,3.0,-100.00,NE,50,0.0,3.0,64,0.00,,,0.15,0.000000,,2013-02-11 08:01:00,
2013-02-11 03:32:00,13.0,3.0,-100.00,NE,50,0.0,3.0,64,0.00,,,0.15,0.000000,,2013-02-11 08:32:00,
2013-02-11 03:42:00,13.0,3.0,-100.00,NE,50,0.0,3.0,64,0.00,,,0.15,0.000000,,2013-02-11 08:42:00,
2013-02-11 03:52:00,13.0,3.0,-100.00,NE,50,0.0,3.0,64,0.00,,,0.15,0.000000,,2013-02-11 08:52:00,
2013-02-11 04:01:00,13.0,3.0,-100.00,NE,38,1.0,5.0,64,0.00,,,0.15,0.000000,,2013-02-11 09:01:00,
2013-02-11 04:32:00,13.0,3.0,-100.00,NE,38,1.0,5.0,64,0.00,,,0.15,0.000000,,2013-02-11 09:32:00,
2013-02-11 04:42:00,13.0,3.0,-100.00,NE,38,1.0,5.0,64,0.00,,,0.15,0.000000,,2013-02-11 09:42:00,
2013-02-11 04:52:00,13.0,3.0,-100.00,NE,38,1.0,5.0,64,0.00,,,0.15,0.000000,,2013-02-11 09:52:00,
2013-02-11 05:01:00,14.0,4.0,-100.00,NE,36,1.0,6.0,64,0.00,,,0.15,0.000000,,2013-02-11 10:01:00,
2013-02-11 05:32:00,14.0,4.0,-100.00,NE,36,1.0,6.0,64,0.00,,,0.15,0.000000,,2013-02-11 10:32:00,
2013-02-11 05:42:00,14.0,4.0,-100.00,NE,36,1.0,6.0,64,0.00,,,0.15,0.000000,,2013-02-11 10:42:00,
2013-02-11 05:52:00,14.0,4.0,-100.00,NE,36,1.0,6.0,64,0.00,,,0.15,0.000000,,2013-02-11 10:52:00,
2013-02-11 06:01:00,15.0,6.0,-100.00,NNE,21,1.0,4.0,66,0.00,,,0.15,0.000000,,2013-02-11 11:01:00,
2013-02-11 06:32:00,15.0,6.0,-100.00,NNE,21,1.0,4.0,66,0.00,,,0.15,0.000000,,2013-02-11 11:32:00,
2013-02-11 06:42:00,15.0,6.0,-100.00,NNE,21,1.0,4.0,66,0.00,,,0.15,0.000000,,2013-02-11 11:42:00,
2013-02-11 06:52:00,15.0,6.0,-100.00,NNE,21,1.0,4.0,66,0.00,,,0.15,0.000000,,2013-02-11 11:52:00,
2013-02-11 07:01:00,16.0,7.0,-100.00,NNE,30,1.0,6.0,67,0.00,,,-99.99,0.000000,,2013-02-11 12:01:00,
2013-02-11 07:32:00,16.0,7.0,-100.00,NNE,30,1.0,6.0,67,0.00,,,-99.99,0.000000,,2013-02-11 12:32:00,
2013-02-11 07:42:00,16.0,7.0,-100.00,NNE,30,1.0,6.0,67,0.00,,,-99.99,0.000000,,2013-02-11 12:42:00,
2013-02-11 07:52:00,16.0,7.0,-100.00,NNE,30,1.0,6.0,67,0.00,,,-99.99,0.000000,,2013-02-11 12:52:00,
2013-02-11 08:01:00,17.0,8.0,-100.00,NNE,27,0.0,5.0,66,0.00,,,-99.99,12.000000,,2013-02-11 13:01:00,
2013-02-11 08:33:00,17.0,8.0,-100.00,NNE,27,0.0,5.0,66,0.00,,,-99.99,12.000000,,2013-02-11 13:33:00,
2013-02-11 08:52:00,17.0,8.0,-100.00,NNE,27,0.0,5.0,66,0.00,,,-99.99,12.000000,,2013-02-11 13:52:00,
2013-02-11 09:01:00,20.0,10.0,-100.00,NE,49,1.0,5.0,64,0.00,,,-99.99,38.000000,,2013-02-11 14:01:00,
2013-02-11 09:33:00,20.0,10.0,-100.00,NE,49,1.0,5.0,64,0.00,,,-99.99,38.000000,,2013-02-11 14:33:00,
2013-02-11 09:42:00,20.0,10.0,-100.00,NE,49,1.0,5.0,64,0.00,,,-99.99,38.000000,,2013-02-11 14:42:00,
2013-02-11 09:53:00,20.0,10.0,-100.00,NE,49,1.0,5.0,64,0.00,,,-99.99,38.000000,,2013-02-11 14:53:00,
2013-02-11 10:01:00,21.0,12.0,-100.00,North,9,0.0,3.0,68,0.00,,,0.15,35.000000,,2013-02-11 15:01:00,
2013-02-11 10:32:00,21.0,12.0,-100.00,North,9,0.0,3.0,68,0.00,,,0.15,35.000000,,2013-02-11 15:32:00,
2013-02-11 10:42:00,21.0,12.0,-100.00,North,9,0.0,3.0,68,0.00,,,0.15,35.000000,,2013-02-11 15:42:00,
2013-02-11 10:52:00,21.0,12.0,-100.00,North,9,0.0,3.0,68,0.00,,,0.15,35.000000,,2013-02-11 15:52:00,
2013-02-11 11:01:00,23.0,17.0,-100.00,North,350,0.0,3.0,78,0.00,,,-99.99,63.000000,,2013-02-11 16:01:00,
2013-02-11 11:32:00,23.0,17.0,-100.00,North,350,0.0,3.0,78,0.00,,,-99.99,63.000000,,2013-02-11 16:32:00,
2013-02-11 11:42:00,23.0,17.0,-100.00,North,350,0.0,3.0,78,0.00,,,-99.99,63.000000,,2013-02-11 16:42:00,
2013-02-11 11:53:00,23.0,17.0,-100.00,North,350,0.0,3.0,78,0.00,,,-99.99,63.000000,,2013-02-11 16:53:00,
2013-02-11 12:01:00,26.0,21.0,-100.00,NNE,25,0.0,4.0,80,0.00,,,0.11,65.000000,,2013-02-11 17:01:00,
2013-02-11 12:32:00,26.0,21.0,-100.00,NNE,25,0.0,4.0,80,0.00,,,0.11,65.000000,,2013-02-11 17:32:00,
2013-02-11 12:42:00,26.0,21.0,-100.00,NNE,25,0.0,4.0,80,0.00,,,0.11,65.000000,,2013-02-11 17:42:00,
2013-02-11 12:53:00,26.0,21.0,-100.00,NNE,25,0.0,4.0,80,0.00,,,0.11,65.000000,,2013-02-11 17:53:00,
2013-02-11 13:01:00,29.0,25.0,-100.00,NE,36,0.0,3.0,83,0.00,,,0.09,50.000000,,2013-02-11 18:01:00,
2013-02-11 13:22:00,29.0,25.0,-100.00,NE,36,0.0,3.0,83,0.00,,,0.09,50.000000,,2013-02-11 18:22:00,
2013-02-11 13:32:00,29.0,25.0,-100.00,NE,36,0.0,3.0,83,0.00,,,0.09,50.000000,,2013-02-11 18:32:00,
2013-02-11 13:42:00,29.0,25.0,-100.00,NE,36,0.0,3.0,83,0.00,,,0.09,50.000000,,2013-02-11 18:42:00,
2013-02-11 13:54:00,29.0,25.0,-100.00,NE,36,0.0,3.0,83,0.00,,,0.09,50.000000,,2013-02-11 18:54:00,
2013-02-11 14:01:00,31.0,28.0,-100.00,North,8,0.0,3.0,87,0.00,,,0.05,73.000000,,2013-02-11 19:01:00,
2013-02-11 14:22:00,31.0,28.0,-100.00,North,8,0.0,3.0,87,0.00,,,0.05,73.000000,,2013-02-11 19:22:00,
2013-02-11 14:32:00,31.0,28.0,-100.00,North,8,0.0,3.0,87,0.00,,,0.05,73.000000,,2013-02-11 19:32:00,
2013-02-11 14:42:00,31.0,28.0,-100.00,North,8,0.0,3.0,87,0.00,,,0.05,73.000000,,2013-02-11 19:42:00,
2013-02-11 14:52:00,31.0,28.0,-100.00,North,8,0.0,3.0,87,0.00,,,0.05,73.000000,,2013-02-11 19:52:00,
2013-02-11 15:01:00,32.0,29.0,-100.00,NNE,19,0.0,3.0,87,0.02,,,0.03,76.000000,,2013-02-11 20:01:00,
2013-02-11 15:32:00,32.0,29.0,-100.00,NNE,19,0.0,3.0,87,0.02,,,0.03,76.000000,,2013-02-11 20:32:00,
2013-02-11 15:42:00,32.0,29.0,-100.00,NNE,19,0.0,3.0,87,0.02,,,0.03,76.000000,,2013-02-11 20:42:00,
2013-02-11 15:52:00,32.0,29.0,-100.00,NNE,19,0.0,3.0,87,0.02,,,0.03,76.000000,,2013-02-11 20:52:00,
2013-02-11 16:01:00,32.0,29.0,-100.00,ENE,75,0.0,4.0,89,0.00,,,0.02,58.000000,,2013-02-11 21:01:00,
2013-02-11 16:32:00,32.0,29.0,-100.00,ENE,75,0.0,4.0,89,0.00,,,0.02,58.000000,,2013-02-11 21:32:00,
2013-02-11 16:42:00,32.0,29.0,-100.00,ENE,75,0.0,4.0,89,0.00,,,0.02,58.000000,,2013-02-11 21:42:00,
2013-02-11 16:52:00,32.0,29.0,-100.00,ENE,75,0.0,4.0,89,0.00,,,0.02,58.000000,,2013-02-11 21:52:00,
2013-02-11 17:01:00,32.0,30.0,-100.00,ESE,122,0.0,3.0,93,0.01,,,0.03,19.000000,,2013-02-11 22:01:00,
2013-02-11 17:32:00,32.0,30.0,-100.00,ESE,122,0.0,3.0,93,0.01,,,0.03,19.000000,,2013-02-11 22:32:00,
2013-02-11 17:42:00,32.0,30.0,-100.00,ESE,122,0.0,3.0,93,0.01,,,0.03,19.000000,,2013-02-11 22:42:00,
2013-02-11 17:52:00,32.0,30.0,-100.00,ESE,122,0.0,3.0,93,0.01,,,0.03,19.000000,,2013-02-11 22:52:00,
2013-02-11 18:01:00,32.0,31.0,-100.00,ENE,61,0.0,0.0,95,0.01,,,0.04,1.000000,,2013-02-11 23:01:00,
2013-02-11 18:22:00,32.0,31.0,-100.00,ENE,61,0.0,0.0,95,0.01,,,0.04,1.000000,,2013-02-11 23:22:00,
2013-02-11 18:32:00,32.0,31.0,-100.00,ENE,61,0.0,0.0,95,0.01,,,0.04,1.000000,,2013-02-11 23:32:00,
2013-02-11 18:42:00,32.0,31.0,-100.00,ENE,61,0.0,0.0,95,0.01,,,0.04,1.000000,,2013-02-11 23:42:00,
2013-02-11 18:52:00,32.0,31.0,-100.00,ENE,61,0.0,0.0,95,0.01,,,0.04,1.000000,,2013-02-11 23:52:00,
2013-02-11 19:01:00,37.0,35.0,-100.00,SW,233,1.0,16.0,92,0.04,,,0.08,0.000000,,2013-02-12 00:01:00,
2013-02-11 19:32:00,37.0,35.0,-100.00,SW,233,1.0,16.0,92,0.04,,,0.08,0.000000,,2013-02-12 00:32:00,
2013-02-11 19:42:00,37.0,35.0,-100.00,SW,233,1.0,16.0,92,0.04,,,0.08,0.000000,,2013-02-12 00:42:00,
2013-02-11 19:52:00,37.0,35.0,-100.00,SW,233,1.0,16.0,92,0.04,,,0.08,0.000000,,2013-02-12 00:52:00,
2013-02-11 20:01:00,37.0,35.0,-100.00,SW,227,3.0,11.0,91,0.03,,,0.11,0.000000,,2013-02-12 01:01:00,
2013-02-11 20:32:00,37.0,35.0,-100.00,SW,227,3.0,11.0,91,0.03,,,0.11,0.000000,,2013-02-12 01:32:00,
2013-02-11 20:42:00,37.0,35.0,-100.00,SW,227,3.0,11.0,91,0.03,,,0.11,0.000000,,2013-02-12 01:42:00,
2013-02-11 20:52:00,37.0,35.0,-100.00,SW,227,3.0,11.0,91,0.03,,,0.11,0.000000,,2013-02-12 01:52:00,
2013-02-11 21:01:00,35.0,32.0,-100.00,SW,233,4.0,16.0,90,0.03,,,0.14,0.000000,,2013-02-12 02:01:00,
2013-02-11 21:22:00,35.0,32.0,-100.00,SW,233,4.0,16.0,90,0.03,,,0.14,0.000000,,2013-02-12 02:22:00,
2013-02-11 21:32:00,35.0,32.0,-100.00,SW,233,4.0,16.0,90,0.03,,,0.14,0.000000,,2013-02-12 02:32:00,
2013-02-11 21:42:00,35.0,32.0,-100.00,SW,233,4.0,16.0,90,0.03,,,0.14,0.000000,,2013-02-12 02:42:00,
2013-02-11 21:53:00,35.0,32.0,-100.00,SW,233,4.0,16.0,90,0.03,,,0.14,0.000000,,2013-02-12 02:53:00,
2013-02-11 22:01:00,35.0,31.0,-100.00,WSW,239,4.0,17.0,86,0.01,,,0.15,0.000000,,2013-02-12 03:01:00,
2013-02-11 22:32:00,35.0,31.0,-100.00,WSW,239,4.0,17.0,86,0.01,,,0.15,0.000000,,2013-02-12 03:32:00,
2013-02-11 22:42:00,35.0,31.0,-100.00,WSW,239,4.0,17.0,86,0.01,,,0.15,0.000000,,2013-02-12 03:42:00,
2013-02-11 22:52:00,35.0,31.0,-100.00,WSW,239,4.0,17.0,86,0.01,,,0.15,0.000000,,2013-02-12 03:52:00,
2013-02-11 23:01:00,35.0,30.0,-100.00,WSW,238,3.0,15.0,82,0.01,,,0.16,0.000000,,2013-02-12 04:01:00,
2013-02-11 23:21:00,35.0,30.0,-100.00,WSW,238,3.0,15.0,82,0.01,,,0.16,0.000000,,2013-02-12 04:21:00,
2013-02-11 23:32:00,35.0,30.0,-100.00,WSW,238,3.0,15.0,82,0.01,,,0.16,0.000000,,2013-02-12 04:32:00,
2013-02-11 23:42:00,35.0,30.0,-100.00,WSW,238,3.0,15.0,82,0.01,,,0.16,0.000000,,2013-02-12 04:42:00,
2013-02-11 23:52:00,35.0,30.0,-100.00,WSW,238,3.0,15.0,82,0.01,,,0.16,0.000000,,2013-02-12 04:52:00,